Weather History for Al Hoceima, Morocco

Change the Weather History Date:

Wednesday, November 7, 2012

  Actual Average Record
Temperature  
Mean Temperature 66 °F -  
Max Temperature 70 °F 65 °F 80 °F (1999)
Min Temperature 61 °F 51 °F 48 °F (2007)
Growing Degree Days 16 (Base 50)    
Moisture  
Dew Point 60 °F    
Average Humidity 74    
Maximum Humidity 78    
Minimum Humidity 66    
Precipitation  
Precipitation 0.00 in - - ()
Sea Level Pressure  
Sea Level Pressure 30.09 in    
Wind  
Wind Speed 9 mph ()    
Max Wind Speed 20 mph    
Max Gust Speed 29 mph    
Visibility 5.2 miles    
Events      
Averages and records for this station are not official NWS values.
T = Trace of Precipitation, MM = Missing Value Source: Averaged Metar Reports

Daily Weather History Graph

Daily Weather History Graph

Search for Another Location

Airport:

Trip Planner

Search our weather history database for the weather conditions in past years. The results will help you decide how hot, cold, wet, or windy it might be!

Date:

Astronomy

Nov. 07, 2012 Rise Set
Actual Time 6:42 AM WET 5:15 PM WET
Civil Twilight 6:16 AM WET 5:41 PM WET
Nautical Twilight 5:45 AM WET 6:11 PM WET
Astronomical Twilight 5:15 AM WET 6:41 PM WET
Moon No Moon Rise 1:02 PM WET (11/7)
Length of Visible Light 11h 25m
Length of Day
10h 32m
Last Quarter, 45% of the Moon is Illuminated
Nov 7
Last Quarter
Nov 13
New
Nov 20
First Quarter
Nov 28
Full
Dec 6
Last Quarter

Hourly Weather History & Observations

Time (WET) Temp. Dew Point Humidity Pressure Visibility Wind Dir Wind Speed Gust Speed Precip Events Conditions
6:00 AM 68 °F 60 °F 69% 30.06 in 5 mi ENE 6.9 mph - -   Overcast
6:00 AM 68.0 °F 60.8 °F 78% 30.04 in 5.0 mi ENE 6.9 mph - N/A   Mostly Cloudy
7:00 AM 68.0 °F 60.8 °F 78% 30.09 in 5.0 mi East 9.2 mph - N/A   Mostly Cloudy
8:00 AM 68.0 °F 60.8 °F 78% 30.09 in 5.0 mi East 9.2 mph - N/A   Mostly Cloudy
9:00 AM 69 °F 60 °F 67% 30.12 in 5 mi NE 4.6 mph - -   Mostly Cloudy
9:00 AM 68.0 °F 60.8 °F 78% 30.09 in 5.0 mi NE 4.6 mph - N/A   Mostly Cloudy
10:00 AM 69.8 °F 60.8 °F 73% 30.12 in 5.0 mi ESE 11.5 mph - N/A   Mostly Cloudy
11:00 AM 69.8 °F 60.8 °F 73% 30.09 in 5.0 mi East 13.8 mph - N/A   Mostly Cloudy
12:00 PM 69 °F 61 °F 68% 30.08 in 5 mi East 19.6 mph - -   Mostly Cloudy
12:00 PM 69.8 °F 60.8 °F 73% 30.06 in 5.0 mi East 19.6 mph - N/A   Mostly Cloudy
1:00 PM 69.8 °F 60.8 °F 73% 30.04 in 5.0 mi East 13.8 mph - N/A   Mostly Cloudy
2:00 PM 69.8 °F 60.8 °F 73% 30.04 in 5.0 mi East 18.4 mph - N/A   Mostly Cloudy
3:00 PM 69 °F 60 °F 66% 30.08 in 6 mi East 16.1 mph - -   Mostly Cloudy
3:00 PM 68.0 °F 60.8 °F 78% 30.06 in 6.2 mi East 16.1 mph 28.8 mph N/A   Mostly Cloudy
4:00 PM 68.0 °F 60.8 °F 78% 30.09 in 5.0 mi ENE 11.5 mph 24.2 mph N/A   Mostly Cloudy
5:00 PM 68.0 °F 59.0 °F 73% 30.09 in 5.0 mi ENE 11.5 mph - N/A   Mostly Cloudy
6:00 PM 68 °F 60 °F 68% 30.13 in 5 mi NE 16.1 mph - -   Mostly Cloudy
6:00 PM 68.0 °F 60.8 °F 78% 30.12 in 5.0 mi NE 16.1 mph 24.2 mph N/A   Mostly Cloudy
7:00 PM 66.2 °F 59.0 °F 78% 30.15 in 5.0 mi NE 11.5 mph 26.5 mph N/A   Mostly Cloudy
8:00 PM 68.0 °F 59.0 °F 73% 30.15 in 6.2 mi NNW 4.6 mph - N/A   Scattered Clouds
9:00 PM 68 °F 60 °F 68% 30.15 in 5 mi South 4.6 mph - -   Mostly Cloudy
9:00 PM 68.0 °F 60.8 °F 78% 30.12 in 5.0 mi South 4.6 mph - N/A   Scattered Clouds